Location: Newark
(43.4956°N, 70.4470°W)
Time: 00:17:03
(UTC+00:00)

N. Korean satellite - Visible Passes

Search period start: 10 December 2019 00:00
Search period end: 20 December 2019 00:00
Orbit: 456 x 506 km, 97.2° (Epoch: 09 December)

Date Brightness Start Highest point End Pass type
(mag) Time Alt. Az. Time Alt. Az. Time Alt. Az.
10 Dec 9.4 09:46:40 10° NE 09:49:13 19° E 09:51:44 10° SE visible
10 Dec 7.5 11:19:37 10° NNW 11:22:37 26° WNW 11:25:34 10° SW visible
10 Dec 7.2 21:55:10 10° S 21:58:51 63° W 22:02:31 10° NNW visible
11 Dec 6.5 10:53:50 10° N 10:57:19 55° WNW 11:00:42 10° SSW visible
12 Dec 6.9 10:28:23 10° NNE 10:31:54 66° ESE 10:35:19 10° S visible
12 Dec 9.6 22:38:50 10° SW 22:41:31 19° W 22:44:13 10° NW visible
13 Dec 8.5 10:03:15 10° NNE 10:06:23 29° E 10:09:27 10° SSE visible
13 Dec 8.3 22:12:30 10° SSW 22:15:58 37° W 22:19:25 10° NNW visible
14 Dec 9.7 09:38:43 10° NE 09:40:46 15° E 09:42:47 10° SE visible
14 Dec 7.2 11:11:07 10° N 11:14:17 32° WNW 11:17:24 10° SW visible
14 Dec 6.8 21:46:48 10° S 21:50:29 81° WSW 21:54:10 10° NNW visible
15 Dec 6.3 10:45:26 10° N 10:48:56 71° WNW 10:52:21 10° SSW visible
15 Dec 10.1 22:57:18 10° WSW 22:58:43 12° W 23:00:10 10° WNW visible
16 Dec 7.4 10:20:04 10° NNE 10:23:29 50° E 10:26:49 10° S visible
16 Dec 9.3 22:30:06 10° SSW 22:33:06 23° W 22:36:05 10° NW visible
17 Dec 9.0 09:55:04 10° NE 09:57:55 23° E 10:00:44 10° SSE visible
17 Dec 7.8 11:28:33 10° NNW 11:31:12 20° WNW 11:33:48 10° WSW visible
17 Dec 7.8 22:04:00 10° S 22:07:34 47° W 22:11:06 10° NNW visible
18 Dec 10.0 09:30:59 10° ENE 09:32:16 12° E 09:33:33 10° ESE visible
18 Dec 6.8 11:02:36 10° N 11:05:54 41° WNW 11:09:08 10° SW visible
18 Dec 6.6 21:38:26 10° SSE 21:42:07 80° ENE 21:45:45 10° N visible
19 Dec 6.4 10:37:01 10° NNE 10:40:31 88° ESE 10:43:56 10° SSW visible
19 Dec 9.9 22:48:10 10° SW 22:50:16 15° W 22:52:22 10° WNW visible
